| time (UTC) | temp F | wind direction | speed knots | gust knots | rain 1hr in | rain 24hr in | rain mn in | humidity % | barometer mb |
| 20260506015553 | 71 | 186 | 0.9 | 5.2 | 0.00 | 0.00 | 0.00 | 54 | 1013.0 |
| 20260506015052 | 72 | 182 | 1.7 | 5.2 | 0.00 | 0.00 | 0.00 | 54 | 1013.0 |
| 20260506014556 | 72 | 212 | 0.9 | 5.2 | 0.00 | 0.00 | 0.00 | 54 | 1012.9 |
| 20260506014051 | 72 | 0 | 1.7 | 7.0 | 0.00 | 0.00 | 0.00 | 53 | 1012.8 |
| 20260506013553 | 72 | 199 | 0.0 | 7.0 | 0.00 | 0.00 | 0.00 | 53 | 1012.7 |
| 20260506013057 | 72 | 193 | 1.7 | 7.8 | 0.00 | 0.00 | 0.00 | 53 | 1012.7 |
| 20260506012551 | 73 | 196 | 1.7 | 7.8 | 0.00 | 0.00 | 0.00 | 52 | 1012.5 |
| 20260506012053 | 73 | 205 | 0.9 | 7.8 | 0.00 | 0.00 | 0.00 | 52 | 1012.6 |
| 20260506011600 | 73 | 219 | 1.7 | 7.8 | 0.00 | 0.00 | 0.00 | 52 | 1012.6 |
| 20260506011055 | 73 | 175 | 1.7 | 7.8 | 0.00 | 0.00 | 0.00 | 52 | 1012.5 |
| 20260506010552 | 73 | 192 | 1.7 | 6.1 | 0.00 | 0.00 | 0.00 | 51 | 1012.5 |
| 20260506010058 | 73 | 182 | 0.9 | 8.7 | 0.00 | 0.00 | 0.00 | 51 | 1012.4 |
| 20260506005551 | 73 | 192 | 0.9 | 8.7 | 0.00 | 0.00 | 0.00 | 51 | 1012.3 |
| 20260506005053 | 73 | 194 | 0.9 | 7.0 | 0.00 | 0.00 | 0.00 | 50 | 1012.3 |
| 20260506004556 | 74 | 192 | 2.6 | 7.8 | 0.00 | 0.00 | 0.00 | 50 | 1012.2 |
| 20260506004053 | 74 | 202 | 2.6 | 7.8 | 0.00 | 0.00 | 0.00 | 50 | 1012.2 |
| 20260506003554 | 74 | 0 | 1.7 | 6.1 | 0.00 | 0.00 | 0.00 | 49 | 1012.2 |
| 20260506003058 | 74 | 148 | 1.7 | 5.2 | 0.00 | 0.00 | 0.00 | 49 | 1012.2 |
| 20260506002553 | 74 | 199 | 0.9 | 9.6 | 0.00 | 0.00 | 0.00 | 48 | 1012.2 |
| 20260506002051 | 75 | 186 | 0.9 | 9.6 | 0.00 | 0.00 | 0.00 | 48 | 1012.1 |
| 20260506001607 | 75 | 158 | 0.9 | 4.3 | 0.00 | 0.00 | 0.00 | 47 | 1012.2 |
| 20260506001052 | 75 | 198 | 0.9 | 4.3 | 0.00 | 0.00 | 0.00 | 46 | 1012.1 |
| 20260506000555 | 76 | 190 | 0.9 | 4.3 | 0.00 | 0.00 | 0.00 | 46 | 1012.1 |
| 20260506000123 | 76 | 0 | 1.7 | 7.0 | 0.00 | 0.00 | 0.00 | 45 | 1012.1 |
| 20260505235552 | 76 | 190 | 0.9 | 7.0 | 0.00 | 0.00 | 0.00 | 45 | 1012.1 |
| 20260505235051 | 77 | 190 | 1.7 | 8.7 | 0.00 | 0.00 | 0.00 | 45 | 1012.1 |
| 20260505234610 | 77 | 0 | 1.7 | 8.7 | 0.00 | 0.00 | 0.00 | 44 | 1012.0 |
| 20260505234055 | 77 | 209 | 1.7 | 10.4 | 0.00 | 0.00 | 0.00 | 44 | 1011.9 |
| 20260505233553 | 77 | 201 | 2.6 | 10.4 | 0.00 | 0.00 | 0.00 | 44 | 1011.9 |
| 20260505233100 | 77 | 173 | 1.7 | 10.4 | 0.00 | 0.00 | 0.00 | 44 | 1012.0 |
| 20260505232553 | 77 | 156 | 2.6 | 8.7 | 0.00 | 0.00 | 0.00 | 44 | 1012.0 |
| 20260505232051 | 77 | 194 | 1.7 | 7.8 | 0.00 | 0.00 | 0.00 | 43 | 1011.9 |
| 20260505231601 | 77 | 169 | 2.6 | 8.7 | 0.00 | 0.00 | 0.00 | 43 | 1011.9 |
| 20260505231051 | 78 | 248 | 2.6 | 9.6 | 0.00 | 0.00 | 0.00 | 43 | 1012.0 |
| 20260505230553 | 78 | 244 | 3.5 | 9.6 | 0.00 | 0.00 | 0.00 | 43 | 1012.1 |
| 20260505230100 | 78 | 192 | 2.6 | 8.7 | 0.00 | 0.00 | 0.00 | 42 | 1011.9 |
| 20260505225554 | 78 | 194 | 1.7 | 8.7 | 0.00 | 0.00 | 0.00 | 42 | 1011.9 |
| 20260505225053 | 78 | 202 | 2.6 | 8.7 | 0.00 | 0.00 | 0.00 | 42 | 1012.0 |
| 20260505224601 | 79 | 198 | 1.7 | 8.7 | 0.00 | 0.00 | 0.00 | 41 | 1012.0 |
| 20260505224054 | 79 | 172 | 2.6 | 11.3 | 0.00 | 0.00 | 0.00 | 41 | 1011.9 |
| 20260505223551 | 79 | 196 | 1.7 | 11.3 | 0.00 | 0.00 | 0.00 | 41 | 1011.9 |
| 20260505223104 | 80 | 205 | 1.7 | 14.8 | 0.00 | 0.00 | 0.00 | 40 | 1012.0 |
| 20260505222556 | 80 | 202 | 3.5 | 14.8 | 0.00 | 0.00 | 0.00 | 40 | 1011.9 |
| 20260505222052 | 80 | 223 | 3.5 | 14.8 | 0.00 | 0.00 | 0.00 | 40 | 1011.8 |
| 20260505221601 | 81 | 188 | 1.7 | 13.9 | 0.00 | 0.00 | 0.00 | 39 | 1011.7 |
| 20260505221053 | 81 | 182 | 3.5 | 13.9 | 0.00 | 0.00 | 0.00 | 39 | 1011.7 |
| 20260505220555 | 81 | 169 | 1.7 | 13.0 | 0.00 | 0.00 | 0.00 | 40 | 1011.7 |
| 20260505220108 | 81 | 168 | 2.6 | 13.9 | 0.00 | 0.00 | 0.00 | 39 | 1011.5 |
| 20260505215555 | 81 | 181 | 4.3 | 13.9 | 0.00 | 0.00 | 0.00 | 39 | 1011.7 |
| 20260505215054 | 81 | 196 | 1.7 | 14.8 | 0.00 | 0.00 | 0.00 | 39 | 1011.5 |
| 20260505214605 | 81 | 197 | 3.5 | 16.5 | 0.00 | 0.00 | 0.00 | 39 | 1011.6 |
| 20260505214056 | 81 | 229 | 2.6 | 17.4 | 0.00 | 0.00 | 0.00 | 38 | 1011.5 |
| 20260505213555 | 81 | 192 | 4.3 | 17.4 | 0.00 | 0.00 | 0.00 | 38 | 1011.5 |
| 20260505213056 | 81 | 155 | 3.5 | 12.2 | 0.00 | 0.00 | 0.00 | 37 | 1011.6 |
| 20260505212553 | 81 | 219 | 1.7 | 10.4 | 0.00 | 0.00 | 0.00 | 37 | 1011.6 |
| 20260505212053 | 81 | 213 | 3.5 | 10.4 | 0.00 | 0.00 | 0.00 | 37 | 1011.8 |
| 20260505211634 | 81 | 195 | 2.6 | 15.6 | 0.00 | 0.00 | 0.00 | 36 | 1011.6 |
| 20260505211054 | 81 | 223 | 4.3 | 15.6 | 0.00 | 0.00 | 0.00 | 36 | 1011.8 |
| 20260505210554 | 82 | 196 | 3.5 | 13.0 | 0.00 | 0.00 | 0.00 | 35 | 1011.6 |
| 20260505210056 | 82 | 167 | 4.3 | 13.0 | 0.00 | 0.00 | 0.00 | 35 | 1011.6 |
| 20260505205554 | 83 | 224 | 4.3 | 13.0 | 0.00 | 0.00 | 0.00 | 35 | 1011.5 |
| 20260505205055 | 83 | 201 | 1.7 | 14.8 | 0.00 | 0.00 | 0.00 | 34 | 1011.5 |
| 20260505204603 | 83 | 226 | 4.3 | 14.8 | 0.00 | 0.00 | 0.00 | 34 | 1011.3 |
| 20260505204055 | 84 | 198 | 1.7 | 13.0 | 0.00 | 0.00 | 0.00 | 34 | 1011.3 |
| 20260505203554 | 84 | 198 | 5.2 | 13.0 | 0.00 | 0.00 | 0.00 | 34 | 1011.2 |
| 20260505203055 | 84 | 185 | 3.5 | 15.6 | 0.00 | 0.00 | 0.00 | 34 | 1011.3 |
| 20260505202554 | 84 | 196 | 2.6 | 15.6 | 0.00 | 0.00 | 0.00 | 33 | 1011.4 |
| 20260505202054 | 84 | 177 | 2.6 | 13.0 | 0.00 | 0.00 | 0.00 | 33 | 1011.5 |
| 20260505201555 | 84 | 191 | 2.6 | 13.0 | 0.00 | 0.00 | 0.00 | 32 | 1011.5 |
| 20260505201054 | 85 | 289 | 4.3 | 13.0 | 0.00 | 0.00 | 0.00 | 32 | 1011.6 |
| 20260505200554 | 85 | 190 | 3.5 | 13.9 | 0.00 | 0.00 | 0.00 | 32 | 1011.5 |
| 20260505200055 | 85 | 182 | 4.3 | 13.9 | 0.00 | 0.00 | 0.00 | 32 | 1011.7 |
| 20260505195555 | 85 | 250 | 3.5 | 14.8 | 0.00 | 0.00 | 0.00 | 31 | 1011.6 |
| 20260505195055 | 85 | 182 | 3.5 | 14.8 | 0.00 | 0.00 | 0.00 | 32 | 1011.8 |
| 20260505194557 | 85 | 184 | 3.5 | 10.4 | 0.00 | 0.00 | 0.00 | 32 | 1012.0 |
| 20260505194053 | 86 | 202 | 3.5 | 11.3 | 0.00 | 0.00 | 0.00 | 32 | 1011.8 |
| 20260505193554 | 86 | 171 | 5.2 | 16.5 | 0.00 | 0.00 | 0.00 | 33 | 1011.9 |
| 20260505193053 | 86 | 191 | 4.3 | 16.5 | 0.00 | 0.00 | 0.00 | 32 | 1011.9 |
| 20260505192554 | 86 | 209 | 3.5 | 9.6 | 0.00 | 0.00 | 0.00 | 32 | 1012.0 |
| 20260505192054 | 86 | 198 | 2.6 | 9.6 | 0.00 | 0.00 | 0.00 | 32 | 1012.2 |
| 20260505191600 | 86 | 183 | 3.5 | 9.6 | 0.00 | 0.00 | 0.00 | 32 | 1012.2 |
| 20260505191057 | 86 | 180 | 2.6 | 10.4 | 0.00 | 0.00 | 0.00 | 32 | 1012.4 |
| 20260505190556 | 86 | 188 | 3.5 | 18.2 | 0.00 | 0.00 | 0.00 | 32 | 1012.3 |
| 20260505190109 | 86 | 205 | 4.3 | 18.2 | 0.00 | 0.00 | 0.00 | 32 | 1012.6 |
| 20260505185554 | 86 | 296 | 2.6 | 10.4 | 0.00 | 0.00 | 0.00 | 33 | 1012.8 |
| 20260505185055 | 86 | 198 | 1.7 | 7.8 | 0.00 | 0.00 | 0.00 | 34 | 1012.8 |
| 20260505184554 | 85 | 155 | 2.6 | 8.7 | 0.00 | 0.00 | 0.00 | 34 | 1012.9 |
| 20260505184054 | 85 | 269 | 3.5 | 8.7 | 0.00 | 0.00 | 0.00 | 34 | 1012.9 |
| 20260505183554 | 85 | 148 | 1.7 | 9.6 | 0.00 | 0.00 | 0.00 | 34 | 1012.9 |
| 20260505183054 | 85 | 222 | 2.6 | 9.6 | 0.00 | 0.00 | 0.00 | 34 | 1013.0 |
| 20260505182553 | 85 | 167 | 3.5 | 9.6 | 0.00 | 0.00 | 0.00 | 35 | 1013.1 |
| 20260505182053 | 85 | 198 | 3.5 | 9.6 | 0.00 | 0.00 | 0.00 | 34 | 1013.2 |
| 20260505181638 | 85 | 176 | 3.5 | 9.6 | 0.00 | 0.00 | 0.00 | 35 | 1013.3 |
| 20260505181055 | 84 | 177 | 2.6 | 10.4 | 0.00 | 0.00 | 0.00 | 34 | 1013.4 |
| 20260505180553 | 84 | 160 | 4.3 | 11.3 | 0.00 | 0.00 | 0.00 | 34 | 1013.4 |
| 20260505180105 | 84 | 304 | 5.2 | 13.9 | 0.00 | 0.00 | 0.00 | 35 | 1013.6 |
| 20260505175553 | 84 | 157 | 4.3 | 13.9 | 0.00 | 0.00 | 0.00 | 34 | 1013.5 |
| 20260505175055 | 84 | 178 | 2.6 | 10.4 | 0.00 | 0.00 | 0.00 | 36 | 1013.6 |
| 20260505174556 | 84 | 182 | 3.5 | 10.4 | 0.00 | 0.00 | 0.00 | 37 | 1013.5 |
| 20260505174053 | 84 | 281 | 2.6 | 10.4 | 0.00 | 0.00 | 0.00 | 37 | 1013.6 |
| 20260505173552 | 84 | 290 | 0.9 | 7.8 | 0.00 | 0.00 | 0.00 | 38 | 1013.6 |
| 20260505173056 | 83 | 219 | 1.7 | 9.6 | 0.00 | 0.00 | 0.00 | 39 | 1013.5 |
| 20260505172552 | 83 | 250 | 3.5 | 9.6 | 0.00 | 0.00 | 0.00 | 38 | 1013.7 |
| 20260505172053 | 83 | 288 | 4.3 | 13.0 | 0.00 | 0.00 | 0.00 | 39 | 1013.7 |
| 20260505171603 | 82 | 180 | 2.6 | 13.9 | 0.00 | 0.00 | 0.00 | 39 | 1013.8 |
| 20260505171053 | 82 | 216 | 3.5 | 13.9 | 0.00 | 0.00 | 0.00 | 39 | 1013.7 |
| 20260505170553 | 82 | 190 | 2.6 | 9.6 | 0.00 | 0.00 | 0.00 | 41 | 1013.7 |
| 20260505170055 | 82 | 172 | 4.3 | 9.6 | 0.00 | 0.00 | 0.00 | 43 | 1013.6 |
| 20260505165552 | 82 | 193 | 1.7 | 8.7 | 0.00 | 0.00 | 0.00 | 44 | 1013.9 |
| 20260505165052 | 82 | 196 | 4.3 | 11.3 | 0.00 | 0.00 | 0.00 | 44 | 1014.0 |
| 20260505164555 | 81 | 226 | 1.7 | 11.3 | 0.00 | 0.00 | 0.00 | 45 | 1014.0 |
| 20260505164052 | 81 | 191 | 2.6 | 8.7 | 0.00 | 0.00 | 0.00 | 47 | 1014.1 |
| 20260505163555 | 81 | 182 | 0.9 | 9.6 | 0.00 | 0.00 | 0.00 | 47 | 1014.1 |
| 20260505163057 | 81 | 188 | 2.6 | 9.6 | 0.00 | 0.00 | 0.00 | 48 | 1014.1 |
| 20260505162553 | 80 | 165 | 3.5 | 7.8 | 0.00 | 0.00 | 0.00 | 47 | 1014.3 |
| 20260505162052 | 80 | 186 | 1.7 | 8.7 | 0.00 | 0.00 | 0.00 | 48 | 1014.5 |
| 20260505161555 | 80 | 186 | 2.6 | 9.6 | 0.00 | 0.00 | 0.00 | 49 | 1014.5 |
| 20260505161053 | 80 | 200 | 1.7 | 10.4 | 0.00 | 0.00 | 0.00 | 49 | 1014.6 |
| 20260505160553 | 79 | 163 | 2.6 | 10.4 | 0.00 | 0.00 | 0.00 | 50 | 1014.7 |
| 20260505153059 | 78 | 196 | 1.7 | 9.6 | 0.00 | 0.00 | 0.00 | 54 | 1014.9 |
| 20260505152552 | 77 | 143 | 3.5 | 9.6 | 0.00 | 0.00 | 0.00 | 54 | 1014.9 |
| 20260505152053 | 77 | 205 | 2.6 | 9.6 | 0.00 | 0.00 | 0.00 | 53 | 1015.0 |
| 20260505151559 | 77 | 194 | 2.6 | 7.0 | 0.00 | 0.00 | 0.00 | 54 | 1015.0 |
| 20260505151057 | 77 | 184 | 1.7 | 7.0 | 0.00 | 0.00 | 0.00 | 54 | 1014.9 |
| 20260505150552 | 77 | 163 | 1.7 | 7.8 | 0.00 | 0.00 | 0.00 | 56 | 1014.9 |
| 20260505140552 | 72 | 261 | 1.7 | 9.6 | 0.00 | 0.00 | 0.00 | 62 | 1015.0 |
| 20260505124554 | 66 | 198 | 0.9 | 7.8 | 0.00 | 0.00 | 0.00 | 70 | 1015.1 |
| 20260505124054 | 66 | 222 | 1.7 | 6.1 | 0.00 | 0.00 | 0.00 | 70 | 1015.0 |
| 20260505123552 | 65 | 254 | 0.9 | 6.1 | 0.00 | 0.00 | 0.00 | 71 | 1015.1 |
| 20260505123101 | 65 | 192 | 2.6 | 6.1 | 0.00 | 0.00 | 0.00 | 71 | 1015.0 |
| 20260505122552 | 64 | 185 | 0.9 | 6.1 | 0.00 | 0.00 | 0.00 | 72 | 1015.0 |
| 20260505122053 | 64 | 221 | 1.7 | 7.0 | 0.00 | 0.00 | 0.00 | 72 | 1014.9 |
| 20260505121555 | 64 | 188 | 2.6 | 7.0 | 0.00 | 0.00 | 0.00 | 73 | 1014.8 |
| 20260505121052 | 63 | 203 | 0.9 | 4.3 | 0.00 | 0.00 | 0.00 | 73 | 1014.9 |
| 20260505120554 | 63 | 257 | 0.9 | 5.2 | 0.00 | 0.00 | 0.00 | 74 | 1014.7 |
| 20260505120117 | 62 | 193 | 1.7 | 5.2 | 0.00 | 0.00 | 0.00 | 75 | 1014.5 |
| 20260505115551 | 62 | 0 | 0.9 | 5.2 | 0.00 | 0.00 | 0.00 | 75 | 1014.6 |
| 20260505115049 | 61 | 189 | 1.7 | 4.3 | 0.00 | 0.00 | 0.00 | 76 | 1014.6 |
| 20260505114555 | 61 | 180 | 1.7 | 5.2 | 0.00 | 0.00 | 0.00 | 77 | 1014.5 |
| 20260505114049 | 60 | 187 | 0.9 | 5.2 | 0.00 | 0.00 | 0.00 | 77 | 1014.5 |
| 20260505113555 | 60 | 187 | 0.9 | 5.2 | 0.00 | 0.00 | 0.00 | 77 | 1014.5 |
| 20260505113056 | 60 | 173 | 1.7 | 5.2 | 0.00 | 0.00 | 0.00 | 78 | 1014.5 |
| 20260505112552 | 59 | 163 | 0.0 | 5.2 | 0.00 | 0.00 | 0.00 | 79 | 1014.4 |
| 20260505112052 | 58 | 184 | 0.9 | 4.3 | 0.00 | 0.00 | 0.00 | 79 | 1014.4 |
| 20260505111557 | 58 | 190 | 0.9 | 2.6 | 0.00 | 0.00 | 0.00 | 80 | 1014.6 |
| 20260505111052 | 57 | 190 | 0.0 | 1.7 | 0.00 | 0.00 | 0.00 | 80 | 1014.5 |
| 20260505110555 | 56 | 0 | 0.0 | 1.7 | 0.00 | 0.00 | 0.00 | 80 | 1014.3 |
| 20260505110109 | 56 | 0 | 0.0 | 1.7 | 0.00 | 0.00 | 0.00 | 80 | 1014.4 |
| 20260505102050 | 55 | 0 | 0.0 | 0.9 | 0.00 | 0.00 | 0.00 | 77 | 1014.1 |
| 20260505101551 | 55 | 190 | 0.0 | 0.9 | 0.00 | 0.00 | 0.00 | 77 | 1014.0 |
| 20260505101053 | 55 | 0 | 0.0 | 0.9 | 0.00 | 0.00 | 0.00 | 77 | 1014.1 |
| 20260505100553 | 55 | 0 | 0.0 | 0.9 | 0.00 | 0.00 | 0.00 | 77 | 1014.0 |
| 20260505095553 | 56 | 0 | 0.0 | 0.9 | 0.00 | 0.00 | 0.00 | 76 | 1014.1 |
| 20260505095053 | 56 | 0 | 0.0 | 0.9 | 0.00 | 0.00 | 0.00 | 76 | 1014.0 |
| 20260505094557 | 56 | 0 | 0.0 | 1.7 | 0.00 | 0.00 | 0.00 | 76 | 1014.0 |
| 20260505094054 | 56 | 0 | 0.0 | 1.7 | 0.00 | 0.00 | 0.00 | 75 | 1014.0 |
| 20260505093552 | 56 | 190 | 0.0 | 0.9 | 0.00 | 0.00 | 0.00 | 75 | 1013.9 |
| 20260505093056 | 57 | 0 | 0.0 | 1.7 | 0.00 | 0.00 | 0.00 | 75 | 1013.9 |
| 20260505092553 | 57 | 0 | 0.0 | 1.7 | 0.00 | 0.00 | 0.00 | 75 | 1013.9 |
| 20260505092053 | 57 | 0 | 0.0 | 1.7 | 0.00 | 0.00 | 0.00 | 75 | 1013.9 |
| 20260505091600 | 57 | 0 | 0.0 | 0.9 | 0.00 | 0.00 | 0.00 | 75 | 1013.8 |
| 20260505091052 | 57 | 0 | 0.0 | 2.6 | 0.00 | 0.00 | 0.00 | 75 | 1013.8 |
| 20260505090553 | 58 | 0 | 0.0 | 2.6 | 0.00 | 0.00 | 0.00 | 74 | 1013.8 |
| 20260505090057 | 58 | 190 | 0.0 | 2.6 | 0.00 | 0.00 | 0.00 | 74 | 1013.8 |
| 20260505085553 | 58 | 0 | 0.0 | 1.7 | 0.00 | 0.00 | 0.00 | 74 | 1013.8 |
| 20260505085053 | 58 | 0 | 0.0 | 1.7 | 0.00 | 0.00 | 0.00 | 74 | 1013.8 |
| 20260505084604 | 58 | 0 | 0.0 | 1.7 | 0.00 | 0.00 | 0.00 | 74 | 1013.8 |
| 20260505084056 | 58 | 0 | 0.0 | 1.7 | 0.00 | 0.00 | 0.00 | 73 | 1013.7 |
| 20260505083552 | 59 | 190 | 0.0 | 1.7 | 0.00 | 0.00 | 0.00 | 73 | 1013.8 |
| 20260505083108 | 59 | 0 | 0.0 | 1.7 | 0.00 | 0.00 | 0.00 | 73 | 1013.7 |
| 20260505082556 | 59 | 0 | 0.0 | 2.6 | 0.00 | 0.00 | 0.00 | 72 | 1013.8 |
| 20260505082053 | 59 | 190 | 0.0 | 2.6 | 0.00 | 0.00 | 0.00 | 73 | 1013.8 |
| 20260505081600 | 59 | 0 | 0.0 | 3.5 | 0.00 | 0.00 | 0.00 | 72 | 1013.8 |
| 20260505081053 | 59 | 189 | 0.0 | 3.5 | 0.00 | 0.00 | 0.00 | 72 | 1013.8 |
| 20260505080553 | 59 | 0 | 0.0 | 2.6 | 0.00 | 0.00 | 0.00 | 72 | 1013.7 |
| 20260505080058 | 60 | 189 | 0.0 | 3.5 | 0.00 | 0.00 | 0.00 | 72 | 1013.9 |
| 20260505075553 | 60 | 190 | 0.9 | 3.5 | 0.00 | 0.00 | 0.00 | 72 | 1013.8 |
| 20260505075055 | 60 | 190 | 0.0 | 6.1 | 0.00 | 0.00 | 0.00 | 72 | 1013.6 |
| 20260505074555 | 60 | 190 | 0.9 | 6.1 | 0.00 | 0.00 | 0.00 | 72 | 1013.6 |
| 20260505074053 | 60 | 198 | 0.0 | 5.2 | 0.00 | 0.00 | 0.00 | 71 | 1013.6 |
| 20260505073552 | 60 | 0 | 0.0 | 5.2 | 0.00 | 0.00 | 0.00 | 71 | 1013.6 |
| 20260505073101 | 60 | 194 | 0.9 | 6.1 | 0.00 | 0.00 | 0.00 | 71 | 1013.5 |
| 20260505072552 | 60 | 0 | 0.0 | 6.1 | 0.00 | 0.00 | 0.00 | 71 | 1013.5 |
| 20260505072052 | 60 | 170 | 0.0 | 6.1 | 0.00 | 0.00 | 0.00 | 71 | 1013.4 |
| 20260505071556 | 60 | 0 | 1.7 | 6.1 | 0.00 | 0.00 | 0.00 | 71 | 1013.4 |
| 20260505071053 | 60 | 200 | 0.9 | 6.1 | 0.00 | 0.00 | 0.00 | 71 | 1013.4 |
| 20260505070553 | 60 | 202 | 1.7 | 6.1 | 0.00 | 0.00 | 0.00 | 70 | 1013.3 |
| 20260505070101 | 60 | 169 | 0.9 | 4.3 | 0.00 | 0.00 | 0.00 | 70 | 1013.4 |
| 20260505065553 | 60 | 0 | 0.9 | 4.3 | 0.00 | 0.00 | 0.00 | 70 | 1013.5 |
| 20260505065053 | 60 | 0 | 0.0 | 4.3 | 0.00 | 0.00 | 0.00 | 70 | 1013.4 |
| 20260505064637 | 60 | 188 | 0.9 | 5.2 | 0.00 | 0.00 | 0.00 | 69 | 1013.4 |
| 20260505064053 | 60 | 0 | 0.9 | 5.2 | 0.00 | 0.00 | 0.00 | 69 | 1013.3 |
| 20260505063553 | 60 | 192 | 0.0 | 5.2 | 0.00 | 0.00 | 0.00 | 68 | 1013.3 |
| 20260505063053 | 61 | 0 | 0.9 | 5.2 | 0.00 | 0.00 | 0.00 | 68 | 1013.2 |
| 20260505062552 | 61 | 183 | 0.9 | 5.2 | 0.00 | 0.00 | 0.00 | 68 | 1013.2 |
| 20260505062053 | 61 | 182 | 0.9 | 8.7 | 0.00 | 0.00 | 0.00 | 68 | 1013.3 |
| 20260505061557 | 61 | 0 | 0.9 | 8.7 | 0.00 | 0.00 | 0.00 | 68 | 1013.4 |
| 20260505061055 | 61 | 0 | 0.9 | 6.1 | 0.00 | 0.00 | 0.00 | 67 | 1013.4 |
| 20260505060553 | 61 | 199 | 0.9 | 6.1 | 0.00 | 0.00 | 0.00 | 67 | 1013.4 |
| 20260505060101 | 61 | 0 | 1.7 | 7.0 | 0.00 | 0.00 | 0.00 | 67 | 1013.3 |
| 20260505055553 | 61 | 190 | 0.9 | 7.0 | 0.00 | 0.00 | 0.00 | 66 | 1013.3 |
| 20260505055053 | 61 | 188 | 0.9 | 4.3 | 0.00 | 0.00 | 0.00 | 66 | 1013.4 |
| 20260505054601 | 61 | 0 | 0.9 | 6.1 | 0.00 | 0.00 | 0.00 | 66 | 1013.3 |
| 20260505054052 | 61 | 183 | 0.9 | 6.1 | 0.00 | 0.00 | 0.00 | 66 | 1013.3 |
| 20260505053552 | 61 | 264 | 1.7 | 6.1 | 0.00 | 0.00 | 0.00 | 66 | 1013.3 |
| 20260505053058 | 62 | 0 | 0.0 | 6.1 | 0.00 | 0.00 | 0.00 | 65 | 1013.4 |
| 20260505052552 | 62 | 186 | 1.7 | 6.1 | 0.00 | 0.00 | 0.00 | 65 | 1013.3 |
| 20260505052052 | 62 | 194 | 1.7 | 5.2 | 0.00 | 0.00 | 0.00 | 65 | 1013.3 |
| 20260505051558 | 62 | 202 | 1.7 | 6.1 | 0.00 | 0.00 | 0.00 | 64 | 1013.3 |
| 20260505051053 | 62 | 192 | 0.9 | 6.1 | 0.00 | 0.00 | 0.00 | 64 | 1013.4 |
| 20260505050553 | 62 | 184 | 0.0 | 6.1 | 0.00 | 0.00 | 0.00 | 64 | 1013.3 |
| 20260505041604 | 62 | 175 | 1.7 | 5.2 | 0.00 | 0.00 | 0.00 | 61 | 1013.0 |
| 20260505041053 | 62 | 174 | 1.7 | 6.1 | 0.00 | 0.00 | 0.00 | 60 | 1012.9 |
| 20260505040553 | 62 | 194 | 0.9 | 6.1 | 0.00 | 0.00 | 0.00 | 60 | 1013.0 |
| 20260505040104 | 62 | 207 | 0.9 | 6.1 | 0.00 | 0.00 | 0.00 | 60 | 1013.0 |
| 20260505035555 | 62 | 188 | 0.9 | 5.2 | 0.00 | 0.00 | 0.00 | 59 | 1013.0 |
| 20260505035052 | 62 | 202 | 0.9 | 5.2 | 0.00 | 0.00 | 0.00 | 59 | 1013.0 |
| 20260505034611 | 62 | 202 | 1.7 | 5.2 | 0.00 | 0.00 | 0.00 | 59 | 1012.9 |
| 20260505034052 | 62 | 188 | 0.9 | 4.3 | 0.00 | 0.00 | 0.00 | 59 | 1012.9 |
| 20260505033553 | 62 | 184 | 0.9 | 4.3 | 0.00 | 0.00 | 0.00 | 59 | 1012.9 |
| 20260505033109 | 62 | 203 | 0.9 | 2.6 | 0.00 | 0.00 | 0.00 | 59 | 1012.9 |
| 20260505032552 | 62 | 205 | 0.0 | 1.7 | 0.00 | 0.00 | 0.00 | 58 | 1012.9 |
| 20260505032052 | 62 | 205 | 0.0 | 1.7 | 0.00 | 0.00 | 0.00 | 58 | 1012.8 |
| 20260505031555 | 62 | 205 | 0.0 | 1.7 | 0.00 | 0.00 | 0.00 | 58 | 1012.8 |
| 20260505031051 | 62 | 205 | 0.0 | 1.7 | 0.00 | 0.00 | 0.00 | 57 | 1012.8 |
| 20260505030556 | 62 | 0 | 0.0 | 1.7 | 0.00 | 0.00 | 0.00 | 57 | 1012.8 |
| 20260505030127 | 62 | 0 | 0.0 | 0.9 | 0.00 | 0.00 | 0.00 | 57 | 1012.7 |
| 20260505025554 | 62 | 0 | 0.0 | 2.6 | 0.00 | 0.00 | 0.00 | 56 | 1012.8 |
| 20260505025053 | 62 | 0 | 0.0 | 2.6 | 0.00 | 0.00 | 0.00 | 56 | 1012.7 |
| 20260505024611 | 63 | 205 | 0.0 | 0.9 | 0.00 | 0.00 | 0.00 | 56 | 1012.8 |
| 20260505024052 | 63 | 0 | 0.0 | 1.7 | 0.00 | 0.00 | 0.00 | 55 | 1012.8 |
| 20260505023552 | 63 | 0 | 0.0 | 1.7 | 0.00 | 0.00 | 0.00 | 55 | 1012.7 |
| 20260505023058 | 63 | 0 | 0.0 | 2.6 | 0.00 | 0.00 | 0.00 | 54 | 1012.6 |
| 20260505022552 | 64 | 0 | 0.0 | 2.6 | 0.00 | 0.00 | 0.00 | 54 | 1012.6 |
| 20260505022052 | 64 | 0 | 0.0 | 2.6 | 0.00 | 0.00 | 0.00 | 54 | 1012.6 |
| 20260505021558 | 64 | 0 | 0.0 | 1.7 | 0.00 | 0.00 | 0.00 | 54 | 1012.5 |
| 20260505021052 | 64 | 0 | 0.0 | 0.9 | 0.00 | 0.00 | 0.00 | 54 | 1012.6 |
| 20260505020552 | 64 | 0 | 0.0 | 0.9 | 0.00 | 0.00 | 0.00 | 54 | 1012.5 |
| 20260505020108 | 64 | 0 | 0.0 | 1.7 | 0.00 | 0.00 | 0.00 | 53 | 1012.6 |